Skip Page Navigation
NASA JPL Caltech
NASA Logo - Jet Propulsion Laboratory + View the NASA Portal
+ Near-Earth Object (NEO) Program
Search JPL
JPL Home Earth Solar System Stars & Galaxies Technology
JPL Solar System Dynamics
BODIES ORBITS EPHEMERIDES TOOLS PHYSICAL DATA DISCOVERY FAQ SITE MAP
JPL Small-Body Database Browser
Search: [ help ]  
14409 (1991 RM1)
Classification: Main-belt Asteroid          SPK-ID: 2014409
Ephemeris | Orbit Diagram | Orbital Elements | Physical Parameters | Discovery Circumstances | Close-Approach Data ]

[ show orbit diagram ]
Orbital Elements at Epoch 2457600.5 (2016-Jul-31.0) TDB
Reference: JPL 12 (heliocentric ecliptic J2000)
 Element Value Uncertainty (1-sigma)   Units 
e .2154799418491889 5.856e-08  
a 3.196283193358175 4.5246e-08 au
q 2.507548276719816 1.7797e-07 au
i 27.89241965853228 9.6492e-06 deg
node 36.56514889660632 1.4468e-05 deg
peri 258.422695587208 2.756e-05 deg
M 169.3339217427898 2.6519e-05 deg
tp 2456618.734493242927
(2013-Nov-22.23449324)
0.00014714 JED
period 2087.210753728353
5.71
4.4319e-05
1.213e-07
d
yr
n .1724789886967271 3.6624e-09 deg/d
Q 3.885018109996534 5.4995e-08 au
  Orbit Determination Parameters
   # obs. used (total)      1029  
   data-arc span      23014 days (63.01 yr)  
   first obs. used      1953-01-10  
   last obs. used      2016-01-14  
   planetary ephem.      DE431  
   SB-pert. ephem.      SB431-BIG16  
   condition code      0  
   fit RMS      .46691  
   data source      ORB  
   producer      Otto Matic  
   solution date      2016-Feb-25 18:59:53  

Additional Information
 Earth MOID = 1.65261 au 
 Jupiter MOID = 1.72152 au 
 T_jup = 2.981 
[ show covariance matrix ]

Ephemeris | Orbit Diagram | Orbital Elements | Physical Parameters | Discovery Circumstances | Close-Approach Data ]

Physical Parameter Table
Parameter Symbol Value Units Sigma Reference Notes
absolute magnitude H 12.0 mag n/a MPO358771  
rotation period rot_per 8.6912 h n/a LCDB (Rev. 2016-February); Warner et al., 2009 Result based on less than full coverage, so that the period may be wrong by 30 percent or so.
Published Reference List:
[Waszczak, A.; Chang, C.-K.; Ofeck, E.O.; Laher, F.; et al. (2016) Astron. J. 150, A75.]

14409 (1991 RM1)          Discovered 1991-Sep-05 by McNaught, R. H. at Siding Spring
Reference: 20000418/Numbers.arcLast Updated: 2004-04-19

[ show close-approach data ]
Alternate Designations
 1991 RM1 = 2000 DK 
Ephemeris | Orbit Diagram | Orbital Elements | Physical Parameters | Discovery Circumstances | Close-Approach Data ]
ABOUT SSD CREDITS/AWARDS PRIVACY/COPYRIGHT GLOSSARY LINKS
FirstGov 2016-May-04 19:17 UT
(server date/time)  
NASA Home Page
Site Manager:   Ryan S. Park
Webmaster  Alan B. Chamberlin